Location: Newark
(35.6799°N, 139.7636°E)
Time: 05:48:47
(UTC+00:00)

Transit 4A - All Passes

Search period start: 13 December 2019 00:00
Search period end: 23 December 2019 00:00
Orbit: 870 x 975 km, 66.8° (Epoch: 12 December)

Date Brightness Start Highest point End Pass type
(mag) Time Alt. Az. Time Alt. Az. Time Alt. Az.
13 Dec - 05:00:05 10° ESE 05:01:29 11° ESE 05:02:52 10° E daylight
13 Dec - 06:40:44 10° SSW 06:46:58 88° ESE 06:53:05 10° NNE daylight
13 Dec - 08:30:29 10° W 08:34:04 16° NW 08:37:37 10° N visible
13 Dec - 15:46:52 10° NNW 15:52:36 54° ENE 15:58:15 10° SE night (unlit)
13 Dec - 17:34:27 10° WNW 17:38:25 19° WSW 17:42:23 10° SSW night (unlit)
14 Dec - 05:06:28 10° SE 05:10:31 18° ESE 05:14:31 10° ENE daylight
14 Dec - 06:50:10 10° SW 06:56:19 62° WNW 07:02:21 10° NNE daylight
14 Dec - 08:42:36 10° NW 08:43:52 11° NW 08:45:06 10° NNW visible
14 Dec - 14:12:05 10° NNE 14:14:43 13° NE 14:17:20 10° ENE night (unlit)
14 Dec - 15:56:06 10° NNW 16:01:57 83° ENE 16:07:46 10° SSE night (unlit)
14 Dec - 17:45:44 10° W 17:47:27 11° WSW 17:49:10 10° WSW night (unlit)
15 Dec - 05:14:25 10° SSE 05:19:38 29° ESE 05:24:45 10° NE daylight
15 Dec - 06:59:56 10° SW 07:05:45 42° WNW 07:11:29 10° NNE daylight
15 Dec - 14:20:21 10° N 14:24:25 19° NE 14:28:29 10° E night (unlit)
15 Dec - 16:05:29 10° NNW 16:11:14 65° WSW 16:16:58 10° SSE night (unlit)
16 Dec - 05:22:57 10° S 05:28:48 44° ESE 05:34:32 10° NE daylight
16 Dec - 07:10:01 10° WSW 07:15:16 28° NW 07:20:27 10° N daylight
16 Dec - 14:29:05 10° N 14:34:02 28° NE 14:38:56 10° ESE night (unlit)
16 Dec - 16:15:03 10° NW 16:20:27 41° WSW 16:25:50 10° S night (unlit)
17 Dec - 05:31:52 10° SSW 05:38:02 68° ESE 05:44:05 10° NNE daylight
17 Dec - 07:20:31 10° W 07:24:53 20° NW 07:29:11 10° N daylight
17 Dec - 14:38:03 10° NNW 14:43:33 41° ENE 14:49:00 10° SE night (unlit)
17 Dec - 16:24:54 10° NW 16:29:36 26° WSW 16:34:17 10° SSW night (unlit)
18 Dec - 03:59:00 10° SE 04:01:44 13° ESE 04:04:28 10° ENE daylight
18 Dec - 05:41:07 10° SSW 05:47:21 81° WNW 05:53:26 10° NNE daylight
18 Dec - 07:31:38 10° WNW 07:34:36 14° NW 07:37:32 10° NNW daylight
18 Dec - 14:47:11 10° NNW 14:52:58 63° ENE 14:58:43 10° SE night (unlit)
18 Dec - 16:35:17 10° WNW 16:38:40 16° WSW 16:42:04 10° SW night (unlit)
19 Dec - 04:06:16 10° SSE 04:10:48 21° ESE 04:15:16 10° ENE daylight
19 Dec - 05:50:41 10° SW 05:56:44 54° WNW 06:02:39 10° NNE daylight
19 Dec - 13:11:58 10° NNE 13:15:13 15° NE 13:18:28 10° E night (unlit)
19 Dec - 14:56:27 10° NNW 15:02:18 85° WSW 15:08:07 10° SSE night (unlit)
20 Dec - 04:14:28 10° S 04:19:56 33° ESE 04:25:18 10° NE daylight
20 Dec - 06:00:33 10° WSW 06:06:11 36° NW 06:11:43 10° N daylight
20 Dec - 13:20:28 10° N 13:24:54 22° NE 13:29:18 10° E night (unlit)
20 Dec - 15:05:54 10° NW 15:11:34 55° WSW 15:17:12 10° S night (unlit)
21 Dec - 04:23:09 10° S 04:29:08 51° ESE 04:35:00 10° NE daylight
21 Dec - 06:10:46 10° WSW 06:15:44 25° NW 06:20:37 10° N daylight
21 Dec - 13:29:18 10° N 13:34:28 32° NE 13:39:36 10° ESE night (unlit)
21 Dec - 15:15:34 10° NW 15:20:45 34° WSW 15:25:56 10° S night (unlit)
22 Dec - 04:32:12 10° SSW 04:38:24 79° ESE 04:44:28 10° NNE daylight
22 Dec - 06:21:28 10° W 06:25:22 17° NW 06:29:15 10° N daylight
22 Dec - 13:38:19 10° NNW 13:43:57 48° ENE 13:49:32 10° SE night (unlit)
22 Dec - 15:25:33 10° WNW 15:29:52 22° WSW 15:34:12 10° SSW night (unlit)
